Location: Bad Rothenbrunn
(47.2167°N, 11.2167°E)
Time: 08:58:35
(UTC+00:00)

Cosmos 1500 - Pass Details

Date: 03 March 2021
Orbit: 499 x 517 km, 82.5° (Epoch: 14 April)

Event Time Altitude Azimuth Distance (km) Brightness Sun altitude
Rises 18:47:27 0° 202° (SSW) 2,580 6.9 -18.4°
Reaches altitude 10° 18:49:37 10° 208° (SSW) 1,701 6.0 -18.7°
Maximum altitude 18:53:12 46° 283° (WNW) 682 4.2 -19.3°
Drops below altitude 10° 18:56:50 10° 358° (N) 1,716 6.0 -19.9°
Sets 18:59:02 0° 4° (N) 2,606 6.9 -20.3°
